This demonstration page uses our WeatherBlox Daily Observations layout. Learn more.

Left ArrowRight Arrow

Hourly Observations for December 20, 2021

Temp ( °F °C ) Dew Point ( °F °C ) Humidity (%) Winds ( mph kmh ) Pressure ( in mb ) Visibility ( mi km ) Precip ( " mm )
12:56 am 00:56 Clear 31 -0.6 17 -8.3 56 56 WSW 8 13 29.99 1016 10 16 0.00 0.00
1:56 am 01:56 Clear 31 -0.6 17 -8.3 56 56 W 6 9 29.99 1016 10 16 0.00 0.00
2:56 am 02:56 Clear 31 -0.6 16 -8.9 54 54 SW 8 13 29.99 1016 10 16 0.00 0.00
3:56 am 03:56 Clear 29 -1.7 16 -8.9 58 58 WNW 7 11 30.00 1016 10 16 0.00 0.00
4:56 am 04:56 Clear 29 -1.7 17 -8.3 61 61 NW 8 13 30.02 1017 10 16 0.00 0.00
5:56 am 05:56 Clear 31 -0.6 20 -6.7 64 64 NNW 15 24 30.06 1018 10 16 0.00 0.00
6:56 am 06:56 Clear 29 -1.7 23 -5 78 78 N 17 28 30.10 1019 10 16 0.00 0.00
7:56 am 07:56 Clear 28 -2.2 23 -5 81 81 N 23 37 30.15 1021 10 16 0.00 0.00
8:56 am 08:56 Sunny 27 -2.8 20 -6.7 75 75 N 25 41 30.20 1023 10 16 0.00 0.00
9:56 am 09:56 Sunny 26 -3.3 19 -7.2 75 75 N 22 35 30.25 1024 10 16 0.00 0.00
10:56 am 10:56 Sunny 28 -2.2 17 -8.3 63 63 NNE 26 43 30.27 1025 10 16 0.00 0.00
11:56 am 11:56 Sunny 29 -1.7 13 -10.6 51 51 N 25 41 30.30 1026 10 16 0.00 0.00
12:56 pm 12:56 Sunny 30 -1.1 14 -10 51 51 N 21 33 30.29 1026 10 16 0.00 0.00
1:56 pm 13:56 Sunny 32 0 14 -10 47 47 N 17 28 30.29 1026 10 16 0.00 0.00
2:56 pm 14:56 Sunny 33 0.6 12 -11.1 42 42 NE 17 28 30.28 1025 10 16 0.00 0.00
3:56 pm 15:56 Sunny 32 0 15 -9.4 50 50 NNE 13 20 30.29 1026 10 16 0.00 0.00
4:56 pm 16:56 Sunny 28 -2.2 16 -8.9 60 60 NNE 10 17 30.31 1026 10 16 0.00 0.00
5:56 pm 17:56 Clear 22 -5.6 14 -10 71 71 ENE 7 11 30.31 1026 10 16 0.00 0.00
6:56 pm 18:56 Clear 20 -6.7 14 -10 78 78 ENE 7 11 30.29 1026 10 16 0.00 0.00
7:56 pm 19:56 Clear 22 -5.6 15 -9.4 75 75 Calm 30.30 1026 10 16 0.00 0.00
8:56 pm 20:56 Clear 19 -7.2 14 -10 81 81 SSW 5 7 30.28 1025 10 16 0.00 0.00
9:56 pm 21:56 Clear 19 -7.2 14 -10 81 81 SSW 6 9 30.26 1025 10 16 0.00 0.00
10:56 pm 22:56 Clear 17 -8.3 12 -11.1 80 80 SSW 5 7 30.23 1024 10 16 0.00 0.00
11:56 pm 23:56 Clear 18 -7.8 13 -10.6 81 81 SSW 9 15 30.19 1023 10 16 0.00 0.00

Powered by AerisWeather